This is the latest recevied weather packets stored in our database for station/object KO4LCK. If no packets are shown the sender has not sent any weather packets the latest 10 day(s).
| Time | Temp. | Humidity | Pressure | Rain* | Wind** | Luminosity | Snow |
|---|---|---|---|---|---|---|---|
| 1777749340 | 20.56° C | 31% | 1014.9 hPa | 0 mm | - | 588 W/m² | - |
| 1777749038 | 21.11° C | 33% | 1015 hPa | 0 mm | - | 784 W/m² | - |
| 1777748735 | 20.56° C | 30% | 1015.1 hPa | 0 mm | - | 787 W/m² | - |
| 1777748432 | 20° C | 33% | 1015.1 hPa | 0 mm | - | 817 W/m² | - |
| 1777748127 | 20° C | 35% | 1014.9 hPa | 0 mm | - | 847 W/m² | - |
| 1777747824 | 20° C | 35% | 1015 hPa | 0 mm | - | 824 W/m² | - |
| 1777747520 | 20° C | 35% | 1015.1 hPa | 0 mm | - | 645 W/m² | - |
| 1777747216 | 20° C | 32% | 1015 hPa | 0 mm | - | 824 W/m² | - |
| 1777746912 | 20° C | 36% | 1015 hPa | 0 mm | - | 830 W/m² | - |
| 1777746608 | 20° C | 34% | 1015.1 hPa | 0 mm | - | 837 W/m² | - |
| 1777746303 | 20.56° C | 35% | 1015.2 hPa | 0 mm | - | 681 W/m² | - |
| 1777746000 | 20.56° C | 37% | 1015.2 hPa | 0 mm | - | 694 W/m² | - |
| 1777745698 | 21.11° C | 35% | 1015.2 hPa | 0 mm | - | 721 W/m² | - |
| 1777745396 | 20.56° C | 37% | 1015.1 hPa | 0 mm | - | 871 W/m² | - |
| 1777745093 | 19.44° C | 35% | 1015.1 hPa | 0 mm | - | 705 W/m² | - |
| 1777744789 | 19.44° C | 33% | 1015.3 hPa | 0 mm | - | 972 W/m² | - |
| 1777744484 | 19.44° C | 34% | 1015.2 hPa | 0 mm | - | 946 W/m² | - |
| 1777744180 | 19.44° C | 39% | 1015.1 hPa | 0 mm | - | 928 W/m² | - |
| 1777743878 | 20° C | 37% | 1015.4 hPa | 0 mm | - | 755 W/m² | - |
| 1777743574 | 19.44° C | 41% | 1015.2 hPa | 0 mm | - | 737 W/m² | - |
| 1777743271 | 18.89° C | 41% | 1015.5 hPa | 0 mm | - | 534 W/m² | - |
| 1777742970 | 18.89° C | 43% | 1015.4 hPa | 0 mm | - | 727 W/m² | - |
| 1777742666 | 19.44° C | 36% | 1015.3 hPa | 0 mm | - | 553 W/m² | - |
| 1777742362 | 19.44° C | 41% | 1015.4 hPa | 0 mm | - | 614 W/m² | - |
| 1777742058 | 19.44° C | 40% | 1015.5 hPa | 0 mm | - | 703 W/m² | - |
* Rain latest hour (hover to see other rain measurements)
** Current wind speed in m/s (hover to see current wind gust speed)